Regional Weather Roundup
Issued by NWS Cleveland, OH

Home | Current Version | Previous Version | Text Only | Print | Product List | Glossary On
Versions: 1 2 3 4 5 6 7 8 9 10 11 12 13 14 15 16 17 18 19 20 21 22 23 24 25 26 27 28 29 30 31 32 33 34 35 36 37 38 39 40 41 42 43 44 45 46 47 48 49 50
925
ASUS41 KCLE 070102
RWRCLE
OHIO REGIONAL WEATHER ROUNDUP
NATIONAL WEATHER SERVICE CLEVELAND, OH
900 PM EDT FRI MAY 06 2016

NOTE: "FAIR" INDICATES FEW OR NO CLOUDS BELOW 12,000 FEET WITH NO
SIGNIFICANT WEATHER AND/OR OBSTRUCTIONS TO VISIBILITY.

OHZ001>008-015>018-024>027-034-035-043-044-070200-
   NORTHWEST OHIO

CITY           SKY/WX    TMP DP  RH WIND       PRES   REMARKS
DEFIANCE       CLEAR     64  45  49 CALM      29.84F
FINDLAY        CLEAR     62  44  51 SW3       29.84S
TOLEDO EXPRESS CLEAR     62  42  47 SW3       29.83S
TOLEDO EXEC    CLEAR     65  41  41 CALM      29.84S
LIMA           CLEAR     61  41  47 CALM      29.86S
$$

OHZ009>014-019>023-028>033-038-089-070200-
   NORTHEAST OHIO

CITY           SKY/WX    TMP DP  RH WIND       PRES   REMARKS
CLE-HOPKINS    CLEAR     58  42  55 N6        29.86S
CLE-LAKEFRONT  CLEAR     54  43  66 SW9       29.83F
CUY CO. ARPT   PTCLDY    59  45  58 W6        29.84S
LORAIN-ELYRIA  CLEAR     60  37  42 W5        29.85S
ASHTABULA      PTCLDY    58  37  45 NW5       29.83S
AKRON-CANTON   PTCLDY    59  36  42 N8        29.83S
WOOSTER        CLEAR     50  42  74 NW3       29.85S
MANSFIELD      CLEAR     58  40  51 NW5       29.86S
YOUNGSTOWN     MOCLDY    60  35  39 N5        29.81S
$$

OHZ042-051>053-060>062-070>072-077>081-070200-
  SOUTHWEST OHIO

CITY           SKY/WX    TMP DP  RH WIND       PRES   REMARKS
CINC-COVINGTON PTCLDY    61  40  45 NW6       29.89R
CINC-LUNKEN    CLEAR     65  37  35 NW7       29.89R
HAMILTON       CLEAR     58  45  62 CALM      29.89R
DAYTON         PTCLDY    61  39  44 NW5       29.88S
WRIGHT-PAT AFB PTCLDY    63  39  40 CALM      29.87R
DAYTON GENERAL CLEAR     64  37  36 NW6       29.87S
WILMINGTON     CLEAR     61  42  49 N5        29.88R
$$

OHZ036-037-039>041-045>050-054>059-063>069-073>076-082>088-070200-
  CENTRAL AND SOUTHEAST OHIO

CITY           SKY/WX    TMP DP  RH WIND       PRES   REMARKS
COLUMBUS       PTCLDY    60  39  45 N6        29.86R
OSU AIRPORT    PTCLDY    60  40  47 N3        29.86R
BOLTON FIELD   NOT AVBL
RICKENBACK AFB CLEAR     62  39  43 N6        29.85S
NEWARK         CLEAR     58  37  45 NW5       29.85R
MARION         CLEAR     58  44  60 CALM      29.87R
LANCASTER      CLEAR     57  42  57 NW5       29.86R
ZANESVILLE     CLEAR     61  38  42 NW8       29.83S
NEW PHILLY     CLOUDY    62  37  39 NW7       29.83R
$$




USA.gov is the U.S. government's official web portal to all federal, state and local government web resources and services.